CST,Max TemperatureF,Mean TemperatureF,Min TemperatureF,Max Dew PointF,MeanDew PointF,Min DewpointF,Max Humidity, Mean Humidity, Min Humidity, Max Sea Level PressureIn, Mean Sea Level PressureIn, Min Sea Level PressureIn, Max VisibilityMiles, Mean VisibilityMiles, Min VisibilityMiles, Max Wind SpeedMPH, Mean Wind SpeedMPH, Max Gust SpeedMPH,PrecipitationIn, CloudCover, Events, WindDirDegrees
2012-2-1,67,59,51,57,53,45,93,82,71,30.14,30.07,30.00,10,7,1,13,4,16,0.64,6,Rain-Thunderstorm,205
2012-2-2,63,50,37,50,38,32,89,61,32,30.36,30.27,30.11,10,9,2,13,3,16,0.00,0,,340
2012-2-3,64,49,33,42,36,30,92,64,36,30.39,30.31,30.20,10,10,9,12,3,17,0.00,3,,81
2012-2-4,59,55,50,55,52,43,93,77,61,30.19,30.07,30.01,10,7,2,16,7,21,0.32,8,Rain,200
2012-2-5,54,49,43,49,43,36,93,85,76,30.24,30.16,30.05,10,9,2,12,5,15,0.00,8,,3
2012-2-6,54,44,33,37,33,28,82,62,42,30.28,30.24,30.20,10,10,8,9,3,13,0.00,4,,345
2012-2-7,55,41,27,34,28,25,92,64,35,30.29,30.24,30.20,10,6,1,12,2,14,0.00,1,,333
2012-2-8,45,41,37,36,32,28,85,72,58,30.38,30.32,30.25,10,7,4,10,5,16,0.02,8,Rain,330
2012-2-9,43,37,30,29,25,22,82,63,43,30.40,30.32,30.25,10,10,9,12,4,16,0.00,5,,310
2012-2-10,40,35,30,34,30,24,92,73,54,30.23,30.09,30.02,10,7,3,18,5,28,0.02,7,Rain-Snow,222
2012-2-11,33,26,19,27,13,7,72,56,39,30.49,30.33,30.05,10,9,4,21,11,32,T,5,Snow,316
2012-2-12,39,29,18,15,11,8,67,50,33,30.53,30.45,30.37,10,10,10,12,5,17,0.00,0,,280
2012-2-13,42,31,19,33,19,14,89,62,34,30.36,30.20,29.99,10,10,4,22,5,28,0.02,5,Rain-Snow,184
2012-2-14,44,39,33,38,35,30,92,79,65,30.16,30.00,29.90,10,7,1,13,5,16,0.18,8,Rain,230
2012-2-15,57,46,34,46,39,32,92,76,59,30.24,30.13,30.02,10,10,5,13,4,18,0.04,6,Rain,128
2012-2-16,55,46,37,52,46,34,93,82,70,30.23,30.10,29.98,10,9,4,18,7,25,0.06,7,Rain,257
2012-2-17,55,43,31,37,33,30,96,67,38,30.26,30.21,30.11,10,6,0,12,3,15,0.00,0,Fog,49
2012-2-18,55,46,37,36,33,27,85,63,41,30.12,30.06,29.97,10,10,10,15,5,20,0.00,5,,28
2012-2-19,45,36,27,32,27,21,76,64,51,30.16,30.02,29.93,10,10,10,14,6,17,T,6,Rain,12
2012-2-20,52,37,22,29,25,19,88,62,35,30.31,30.20,30.04,10,10,6,14,5,17,0.00,0,,105
2012-2-21,60,49,37,41,38,30,76,58,40,30.04,29.95,29.91,10,10,8,30,12,39,0.05,4,Rain,218
2012-2-22,67,51,34,50,43,30,96,71,45,29.91,29.67,29.51,10,9,5,24,9,31,0.00,2,,213
2012-2-23,78,61,44,54,49,43,100,72,43,29.59,29.49,29.30,10,7,0,26,8,38,T,4,Fog-Rain-Thunderstorm,203
2012-2-24,64,50,36,51,32,24,67,51,35,30.15,29.84,29.44,10,10,10,30,12,39,T,5,,277
2012-2-25,45,36,26,24,20,17,72,53,33,30.38,30.28,30.16,10,10,10,18,6,25,0.00,0,,273
2012-2-26,60,41,22,25,21,18,81,51,21,30.40,30.31,30.22,10,10,10,17,6,23,0.00,0,,172
2012-2-27,67,54,41,37,31,25,53,44,34,30.43,30.36,30.27,10,10,10,15,6,21,0.00,2,,266
2012-2-28,72,54,36,56,38,24,67,52,36,30.41,30.23,29.99,10,10,10,21,6,25,0.00,3,,147
2012-2-29,73,65,57,63,59,34,81,64,47,29.92,29.81,29.70,10,8,0,31,14,40,1.39,6,Fog-Rain-Thunderstorm,228